STARLINK-37887, 69832

Orbit data source: Space-Track

STARLINK-37887, 69832 is a payload satellite owned by SpaceX/Seattle (US) in LEO that was launched on Sun, 05 Jul 2026 UTC via an FALCON 9 launch vehicle from the Air Force Eastern Test Range (AFETR). Payload-class satellites include a variety of spacecraft equipped with specific instruments for various scientific and technological missions. These include communications satellites like Starlink; space stations such as the ISS; scientific satellites like the Hubble; Earth observation satellites from companies like Planet Labs, Umbra, and HawkEye 360; GPS; miniature CubeSats for education and research; and military/defense satellites.

Loading next visibility...
Identifier
69832, 2026-154P
Orbit
LEO
Country
Flag of USUS
Related business
Manufacturer
SpaceX/Seattle
Mission
Operational spacecraft
Bus & Motor
STARLINK V2MO, Unknown motor
Mass
575 kg wet, ~530 kg dry
Launch date (UTC)
2026-07-05 (1 month ago)
Launch vehicle
FALCON 9
Launch site
Air Force Eastern Test Range (AFETR)
Object type
Payload
Rocket body
Debris
Shape & HBR
BOX + PAN, 17.7 m
Radar Cross Section
Large (>1 m²)

Expand to show TLE details & history
Last TLE update: 12 hours ago

TLE from 12 hours ago
0 STARLINK-37887
1 69832U 26154P   26228.58335648  .00047504  00000-0  13651-2 0  9996
2 69832  53.1591 134.9613 0000909 118.3193  15.6428 15.35377287  5925
Epoch: 2026-08-16T14:00Z
TLE epoch observation values (Epoch: 2026-08-16T14:00:01.999Z)
Latitude
35.28621°
Longitude
108.15456°
Altitude
461.835 km
Speed
7.641 km/s
True Right ascension
18h 52m 33s
True Declination
35° 07' 02"
Sunlit
Object was in full shadow at epoch
Visualization orbit readout
Latitude
Unknown
Longitude
Unknown
Altitude
Unknown
Speed
Unknown
Apparent Right ascension
Unknown
Apparent Declination
Unknown
Sunlit
N/A
Visualization observer readout
Local Sidereal Time
16:26:02
Azimuth
Unknown
Elevation
Unknown
Doppler factor
Unknown
Orbital elements
Apogee altitude
460.679 km
Perigee altitude
459.436 km
Semi-major axis
6,838.194 km
Eccentricity
0.00009
Inclination
53.1591°
RAAN
134.9613°
Arg. of periapsis
118.3193°
True anomaly
15.64561°
Mean anomaly
15.6428°
Eccentric anomaly
15.6442°
Mean motion
3.83823 °/min
Orbital period
93.79 mins
BSTAR
0.0013651
Loading maneuver chart data...
Computing Atmospheric mass density...
Loading historical data...
Loading historical data...
Loading historical data...
Loading historical data...
Loading historical data...
Loading historical data...
Loading historical data...

Documentation

Showing up to 5 results
|